Regional Weather Roundup
Issued by NWS

Home | Current Version | Previous Version | Graphics & Text | Print | Product List | Glossary On
Versions: 1 2 3 4 5 6 7 8 9 10 11 12 13 14 15 16 17 18 19 20 21 22 23 24 25 26 27 28 29 30 31 32 33 34 35 36 37 38 39 40 41 42 43 44 45 46 47 48 49 50
209
ASUS43 KTOP 250759
RWRKS

WEATHER ROUNDUP FOR KANSAS
NATIONAL WEATHER SERVICE GOODLAND KS
300 AM CDT MON SEP 25 2017

NOTE:  "FAIR" INDICATES FEW OR NO CLOUDS BELOW 12,000 FEET WITH NO
SIGNIFICANT WEATHER AND/OR OBSTRUCTIONS TO VISIBILITY.

KSZ001>006-013>018-027>032-041>047-250900-
NORTHWEST KANSAS

CITY           SKY/WX    TMP DP  RH WIND       PRES   REMARKS
GOODLAND       CLOUDY    52  52 100 N12       29.98F
HILL CITY      LGT RAIN  58  58 100 NW6       29.94R FOG
RUSSELL        CLOUDY    69  65  86 CALM      29.87F
$$

KSZ061>065-074>080-084>089-250900-
SOUTHWEST KANSAS

CITY           SKY/WX    TMP DP  RH WIND       PRES   REMARKS
DODGE CITY     TSTM      68  65  90 SE15      29.91R FOG
ELKHART          N/A     65  66 100 S13         N/A
GARDEN CITY    CLOUDY    67  64  90 SW9       29.90S
GREAT BEND     CLOUDY    72  63  73 S13       29.88S
$$

KSZ066>073-081>083-090>101-250900-
SOUTHEAST KANSAS

CITY           SKY/WX    TMP DP  RH WIND       PRES   REMARKS
CHANUTE        CLEAR     70  66  87 SE5       29.93R
COFFEYVILLE    CLEAR     71  66  84 SE5       29.92R
HUTCHINSON     CLOUDY    73  65  75 S6        29.89S
MEDICINE LODGE   N/A     73  62  68 S7        29.88S
NEWTON         MOCLDY    67  63  87 SE8       29.92S
PARSONS        PTCLDY    71  65  81 VRB3      29.94R
WICHITA INTL   CLOUDY    72  66  81 SE9       29.89S
WICHITA JABRA  CLOUDY    70  66  87 SE6       29.90S
WINFIELD       CLOUDY    73  67  81 SE7       29.91S
$$

KSZ007>012-019>026-033>040-048>060-102>105-250900-
NORTHEAST KANSAS

CITY           SKY/WX    TMP DP  RH WIND       PRES   REMARKS
CONCORDIA      MOCLDY    65  65 100 E5        29.89S
EMPORIA        CLEAR     69  65  86 S8        29.91S
LAWRENCE       PTCLDY    70  67  90 E7        29.92R
MANHATTAN      CLEAR     74  66  76 S5        29.89R
OLATHE IND     MOCLDY    70  65  84 SE8       29.94S
OLATHE EXE     CLOUDY    68  66  93 S5        29.94R
SALINA         CLOUDY    73  65  75 SE9       29.87F
TOPEKA BILLARD CLEAR     71  68  90 E3        29.91R
TOPEKA FORBES  CLEAR     71  67  87 S5        29.91S
$$




USA.gov is the U.S. government's official web portal to all federal, state and local government web resources and services.